Terminal Aerodrome Forecast
Issued by NWS

Home | Current Version | Previous Version | Text Only | Print | Product List | Glossary On
Versions: 1 2 3 4 5 6 7 8 9 10 11 12 13 14 15 16 17 18 19 20
000
FTUS41 KPBZ 310520
TAFFKL
TAF
KFKL 310520Z 3106/0106 21004KT P6SM SCT250
     FM310900 VRB02KT 4SM BR SCT250
      TEMPO 3111/3113 1SM BR
     FM311400 23005KT P6SM SCT040
      AMD LTD TO CLD VIS AND WIND=

USA.gov is the U.S. government's official web portal to all federal, state and local government web resources and services.